星链-11613 (STARLINK-11613)

导读 | 豆包AI

STARLINK-11613是美国SpaceX公司星链星座的一员,于2025年3月3日由猎鹰9号火箭发射升空。星链项目旨在构建低轨卫星互联网星座,为全球提供高速宽带网络服务,尤其改善偏远地区联网条件。该卫星运行于近地轨道,配备相控阵天线与激光链路技术,部分本次发射的星链卫星还搭载了直连手机通信能力,属于第二代星链组网卫星,进一步扩展星链星座的全球覆盖与服务能力。

基本信息
目录编号:
63136
目录名称:
STARLINK-11613
国际标识:
2025-043E
轨道中心:
EARTH
卫星名称:
星链-11613
卫星全名:
星链-11613 (STARLINK-11613)
卫星状态:
在轨 (已飞行423 天)
发射日期:
2025-03-03 UTC
国别 :
美国 (US)
星等 :
--
轨道信息
数据来源 国际轨道数据
星历时间: 2026-04-29T20:37:21+0800
15小时前
查看轨道信息
半长轴: 6734.54km
偏心率: 0.0003193
轨道倾角: 43.001°
近地点辐角 271.937°
升交点赤经 304.623°
平近点角 88.114°
近地点: 354.252km
远地点: 358.554km
周期: 91.669分钟
每日圈数: 15.708723
详细信息
固有亮度:
5
最大亮度:
2.5
卫星平台:
Starlink V1.0
覆盖范围:
全球
运营商:
太空探索技术公司
运营商所在国:
美国
制造商(研发单位):
太空探索技术公司
制造商所在国:
美国
使用方式:
暂无
卫星简介
Starlink 计划是 SpaceX 推出的全球卫星互联网项目,通过发射低轨道卫星,为全球尤其是偏远地区提供高速、低延迟的互联网服务。自 2019 年起,Starlink 已部署数千颗卫星,旨在缩小全球数字鸿沟,推动互联网普及。该项目还为军事、航空等行业提供通信支持,带来广泛经济效益。
2D轨道图
3D轨道图
轨道高度分析图
轨道倾角分析图
轨道综合分析图
查看轨道综合分析图